Date String (YYYY-MM-DD hh:mm:ss) UTC,Instrument flags,Ambient pressure (hPa),Sample flow (lpm),Bypass flow (lpm),Sample temperature (°C),Ambient temperature (°C),ASC tube jacket temperature (°C),LED temperature (°C),Box temperature (°C),Sample RH (%),Span deviation,Mass concentration (μg/m³),Mass concentration (μg/m³),Mass concentration (μg/m³)
DateTimeUTC,F1_M11,P_M11,Q1_M11,Q2_M11,T1_M11,T2_M11,T3_M11,T4_M11,T5_M11,U1_M11,ZSPAN_M11,X2_M11,X0_M11,X1_M11
2023-05-29 11:00:00,,0829.5,4.99,0.00,28.9,27.3,00.0,37.3,30.5,18.6,0000.0,0003.94,0008.29,0003.20
2023-05-29 11:01:00,,0829.4,5.01,0.00,28.9,27.3,00.0,37.3,30.5,18.5,0000.0,0003.97,0008.15,0003.20
2023-05-29 11:02:00,,0829.5,5.00,0.00,28.9,27.3,00.0,37.3,30.5,18.5,0000.0,0003.99,0008.36,0003.20
2023-05-29 11:03:00,,0829.4,5.01,0.00,28.9,27.3,00.0,37.3,30.5,19.2,0000.0,0004.00,0008.40,0003.20
2023-05-29 11:04:00,,0829.4,5.01,0.00,28.9,27.2,00.0,37.3,30.5,19.2,0000.0,0004.00,0008.80,0003.21
2023-05-29 11:05:00,,0829.4,5.01,0.00,28.9,27.3,00.0,37.3,30.5,19.0,0000.0,0003.97,0008.53,0003.21
2023-05-29 11:06:00,,0829.4,5.00,0.00,28.9,27.2,00.0,37.3,30.5,19.5,0000.0,0003.99,0008.56,0003.22
2023-05-29 11:07:00,,0829.4,5.00,0.00,28.9,27.2,00.0,37.3,30.5,19.4,0000.0,0004.01,0008.64,0003.23
2023-05-29 11:08:00,,0829.4,5.00,0.00,28.9,27.2,00.0,37.3,30.5,19.3,0000.0,0004.04,0008.72,0003.24
2023-05-29 11:09:00,,0829.4,5.00,0.00,28.9,27.3,00.0,37.3,30.5,19.0,0000.0,0004.06,0008.85,0003.24
2023-05-29 11:10:00,,0829.4,4.99,0.00,28.9,27.2,00.0,37.3,30.5,18.4,0000.0,0004.05,0008.83,0003.25
2023-05-29 11:11:00,,0829.4,4.99,0.00,28.9,27.2,00.0,37.3,30.5,18.3,0000.0,0004.04,0008.75,0003.25
2023-05-29 11:12:00,,0829.4,5.01,0.00,28.9,27.2,00.0,37.3,30.5,18.3,0000.0,0004.05,0008.83,0003.25
2023-05-29 11:13:00,,0829.4,5.01,0.00,28.9,27.2,00.0,37.3,30.5,18.5,0000.0,0004.05,0008.72,0003.25
2023-05-29 11:14:00,,0829.5,5.00,0.00,28.9,27.2,00.0,37.3,30.5,18.8,0000.0,0004.02,0008.49,0003.25
2023-05-29 11:15:00,,0829.6,5.00,0.00,28.9,27.2,00.0,37.3,30.5,18.8,0000.0,0003.97,0007.95,0003.24
2023-05-29 11:16:00,,0829.6,4.99,0.00,28.9,27.2,00.0,37.3,30.5,18.7,0000.0,0003.96,0007.75,0003.23
2023-05-29 11:17:00,,0829.6,4.99,0.00,28.9,27.2,00.0,37.3,30.5,18.6,0000.0,0004.01,0007.81,0003.23
2023-05-29 11:18:00,,0829.7,5.02,0.00,28.9,27.2,00.0,37.3,30.5,18.4,0000.0,0004.04,0007.93,0003.24
2023-05-29 11:19:00,,0829.7,5.00,0.00,28.9,27.2,00.0,37.3,30.5,18.4,0000.0,0003.99,0007.81,0003.23
2023-05-29 11:20:00,,0829.6,4.99,0.00,28.9,27.2,00.0,37.3,30.5,18.8,0000.0,0003.96,0007.67,0003.22
2023-05-29 11:21:00,,0829.6,4.99,0.00,28.9,27.2,00.0,37.3,30.5,18.7,0000.0,0003.98,0007.75,0003.23
2023-05-29 11:22:00,,0829.7,5.00,0.00,28.9,27.2,00.0,37.3,30.5,18.8,0000.0,0003.94,0007.66,0003.22
2023-05-29 11:23:00,,0829.7,5.01,0.00,28.9,27.2,00.0,37.3,30.5,18.5,0000.0,0003.92,0007.56,0003.22
2023-05-29 11:24:00,,0829.6,5.02,0.00,28.9,27.2,00.0,37.3,30.5,18.5,0000.0,0003.91,0007.49,0003.21
2023-05-29 11:25:00,,0829.7,5.00,0.00,28.9,27.2,00.0,37.3,30.5,18.6,0000.0,0003.90,0007.44,0003.22
2023-05-29 11:26:00,,0829.7,4.99,0.00,28.9,27.2,00.0,37.3,30.5,19.2,0000.0,0003.93,0007.64,0003.23
2023-05-29 11:27:00,,0829.7,4.99,0.00,28.9,27.2,00.0,37.3,30.5,19.3,0000.0,0003.94,0007.83,0003.24
2023-05-29 11:28:00,,0829.7,5.00,0.00,28.9,27.2,00.0,37.3,30.5,19.4,0000.0,0003.90,0007.70,0003.24
2023-05-29 11:29:00,,0829.7,5.01,0.00,28.9,27.2,00.0,37.3,30.5,19.4,0000.0,0003.84,0007.52,0003.24
2023-05-29 11:30:00,,0829.7,5.01,0.00,28.9,27.2,00.0,37.3,30.5,19.4,0000.0,0003.88,0007.99,0003.24
2023-05-29 11:31:00,,0829.7,5.01,0.00,28.9,27.2,00.0,37.3,30.5,19.4,0000.0,0003.93,0008.25,0003.25
2023-05-29 11:32:00,,0829.7,5.00,0.00,28.9,27.2,00.0,37.3,30.5,19.4,0000.0,0003.94,0008.22,0003.25
2023-05-29 11:33:00,,0829.6,5.00,0.00,28.9,27.2,00.0,37.3,30.5,19.3,0000.0,0003.96,0008.24,0003.27
2023-05-29 11:34:00,,0829.6,4.99,0.00,28.9,27.2,00.0,37.2,30.5,19.4,0000.0,0003.96,0008.19,0003.28
2023-05-29 11:35:00,,0829.6,4.99,0.00,28.9,27.1,00.0,37.2,30.4,19.5,0000.0,0003.95,0008.23,0003.28
2023-05-29 11:36:00,,0829.6,5.00,0.00,28.9,27.1,00.0,37.2,30.4,19.7,0000.0,0003.98,0008.32,0003.28
2023-05-29 11:37:00,,0829.6,5.00,0.00,28.9,27.1,00.0,37.2,30.4,19.5,0000.0,0003.98,0008.21,0003.28
2023-05-29 11:38:00,,0829.5,5.01,0.00,28.8,27.1,00.0,37.2,30.4,19.4,0000.0,0003.96,0007.98,0003.28
2023-05-29 11:39:00,,0829.5,5.00,0.00,28.8,27.1,00.0,37.2,30.4,19.3,0000.0,0003.98,0008.13,0003.27
2023-05-29 11:40:00,,0829.5,5.00,0.00,28.8,27.1,00.0,37.2,30.4,19.0,0000.0,0004.00,0008.22,0003.27
2023-05-29 11:41:00,,0829.6,4.99,0.00,28.8,27.1,00.0,37.2,30.4,19.2,0000.0,0004.04,0008.03,0003.28
2023-05-29 11:42:00,,0829.5,5.01,0.00,28.8,27.1,00.0,37.2,30.4,19.4,0000.0,0004.04,0007.85,0003.27
2023-05-29 11:43:00,,0829.6,5.01,0.00,28.8,27.1,00.0,37.2,30.4,19.1,0000.0,0004.01,0007.83,0003.25
2023-05-29 11:44:00,,0829.6,5.01,0.00,28.8,27.1,00.0,37.2,30.4,19.3,0000.0,0004.00,0008.36,0003.24
2023-05-29 11:45:00,,0829.6,5.00,0.00,28.8,27.1,00.0,37.2,30.4,18.9,0000.0,0004.01,0008.56,0003.23
2023-05-29 11:46:00,,0829.6,5.00,0.00,28.8,27.1,00.0,37.2,30.4,19.1,0000.0,0004.02,0008.59,0003.22
2023-05-29 11:47:00,,0829.6,4.99,0.00,28.8,27.1,00.0,37.2,30.4,18.8,0000.0,0003.99,0009.02,0003.21
2023-05-29 11:48:00,,0829.6,4.99,0.00,28.8,27.1,00.0,37.2,30.4,18.7,0000.0,0003.94,0009.01,0003.19
2023-05-29 11:49:00,,0829.6,5.01,0.00,28.8,27.1,00.0,37.2,30.4,18.8,0000.0,0003.96,0009.03,0003.19
2023-05-29 11:50:00,,0829.7,5.01,0.00,28.8,27.1,00.0,37.2,30.4,18.7,0000.0,0003.98,0009.12,0003.20
2023-05-29 11:51:00,,0829.7,5.00,0.00,28.8,27.1,00.0,37.2,30.4,18.7,0000.0,0004.03,0009.27,0003.20
2023-05-29 11:52:00,,0829.7,5.00,0.00,28.8,27.0,00.0,37.2,30.4,18.8,0000.0,0003.96,0009.28,0003.18
2023-05-29 11:53:00,,0829.7,4.99,0.00,28.8,27.0,00.0,37.2,30.3,18.9,0000.0,0003.96,0009.77,0003.17
2023-05-29 11:54:00,,0829.7,5.00,0.00,28.8,27.0,00.0,37.2,30.3,18.8,0000.0,0004.00,0009.93,0003.17
2023-05-29 11:55:00,,0829.7,5.00,0.00,28.8,27.0,00.0,37.2,30.3,18.4,0000.0,0003.97,0009.34,0003.17
2023-05-29 11:56:00,,0829.6,5.00,0.00,28.8,27.0,00.0,37.2,30.3,18.6,0000.0,0003.94,0009.16,0003.17
2023-05-29 11:57:00,,0829.7,4.99,0.00,28.8,27.0,00.0,37.1,30.3,18.7,0000.0,0003.93,0009.08,0003.16
2023-05-29 11:58:00,,0829.7,5.00,0.00,28.8,27.0,00.0,37.1,30.3,18.7,0000.0,0003.95,0008.53,0003.17
2023-05-29 11:59:00,,0829.7,5.00,0.00,28.8,27.0,00.0,37.1,30.3,18.3,0000.0,0004.01,0008.64,0003.17
